Other Surface Observations
Issued by NWS

Home | Current Version | Previous Version | Text Only | Print | Product List | Glossary On
Versions: 1 2 3 4 5 6 7 8 9 10 11 12 13 14 15 16 17 18 19 20 21 22 23 24 25 26 27 28 29 30 31 32 33 34 35 36 37 38 39 40 41 42 43 44 45 46 47 48 49 50
138
SXUS52 KTAE 300606
OSOTAE
OSOTAE
North Florida/South Alabama/Southwest Georgia Weather Roundup
National Weather Service Tallahassee Florida
200 AM EDT SUN APR 30 2017

Note: "fair" indicates few or no clouds below 12,000 feet with no
significant weather and/or obstructions to visibility.

!FLZ017-115-028-034-025-300700
...North Florida...

CITY           SKY/WX    TMP DP  RH WIND       PRES   REMARKS
TALLAHASSEE    PTCLDY    71  68  90 CALM      30.06S
APALACHICOLA   MOCLDY    77  73  87 SE9       30.04F
PERRY          CLOUDY    74  68  80 SE6       30.09S
CROSS CITY     CLOUDY    75  66  73 SE6       30.09S
JACKSONVILLE   MOCLDY    74  71  91 SE9       30.13S
$$

!FLZ112-006-005-002-011-300700
...Florida Panhandle...

CITY           SKY/WX    TMP DP  RH WIND       PRES   REMARKS
MARIANNA       PTCLDY    73  69  87 SE5       30.03S
BONIFAY        NOT AVBL
PANAMA CITY NW FAIR      72  68  87 E6        30.02R
TYNDALL AFB    PTCLDY    73  68  83 E8        30.02S
TYND DRONE APT FAIR      73  69  89 E7        30.03R
DE FUNIAK SPR  FAIR      70  67  91 SE5       30.04R
EGLIN AFB      CLEAR     74  71  91 SE7       30.01R
DESTIN         CLEAR     77  76  96 SE8       30.01R
HURLBURT       CLEAR     74  71  90 E6        29.99R
CRESTVIEW      CLEAR     68  66  93 E3        30.02S FOG
PENSACOLA      CLEAR     76  71  85 S9        29.98F
$$

!ALZ063-066-300700
...South Alabama...

CITY           SKY/WX    TMP DP  RH WIND       PRES   REMARKS
DOTHAN         CLEAR     71  70  96 SE8       30.07F
OZARK CAIRNS   CLEAR     72  68  89 SE3       30.03F
FT RUCKER HELI CLEAR     71  68  90 CALM      30.03F
RUCKER HELI 3  FAIR      71  68  92 S5        30.03S
RUCKER HELI 2  FAIR      71  68  90 SE6       30.02F
FLORALA APT    PTCLDY    70  66  87 CALM      30.04S
ANDALUSIA      CLEAR     73  68  84 SE3       30.02R
TROY           CLEAR     71  69  93 CALM      30.05R
EUFALA         FAIR      73  68  84 SE5       30.04S
MOBILE         CLOUDY    77  71  82 S21G28    29.96F
$$

!GAZ120>161-300700
...Southwest and South Central Georgia...

CITY           SKY/WX    TMP DP  RH WIND       PRES   REMARKS
THOMASVILLE    FAIR      73  70  88 SE6       30.09S
BAINBRIDGE     PTCLDY    72  68  88 CALM      30.06S
MOODY AFB      CLOUDY    72  65  79 SE6       30.10S
VALDOSTA       PTCLDY    72  65  78 SE6       30.10S
MOULTRIE       PTCLDY    73  68  83 E5        30.09S
BLAKELY        CLEAR     72  68  88 CALM      30.05F
ALBANY         CLEAR     71  67  87 SE6       30.08F
TIFTON         FAIR      73  66  77 SE8       30.10S
FITZGERALD     CLOUDY    73  69  86 SE8       30.13F
CORDELE        FAIR      79  69  72 SE6       30.10S
AMERICUS       FAIR      72  61  68 SE6       30.08F
HOMERVILLE     FAIR      72  70  94 SE5       30.13S
$$

!GMZ750-755-770-775-300700
...Coastal and Buoy Obs...

STATION/POSITION TIME  TEMP    WIND        PRES    VSBY  WAVE
                       AIR SEA DIR/SP/G                  HT/PER
                 (UTC) (F)     (DEG/KT/KT) (MB)    (MI)  (FT/S)
KEATON BEACH     0600   75      90/  7/  8 1018.2R
CEDAR KEY        0500   79     140/ 19/ 20 1019.3F
C TOWER          0600   75     130/ 16/ 17 1018.0F
APALACHICOLA BUO 0450   76 74  130/ 12/ 14 1017.2          4/ 7
PANAMA CITY BUOY 0450   75 74  130/ 12/ 12 1015.5          5/ 8
MOBILE BUOY      0550   77 76  140/ 19/ 23 1013.8R         8/ 8
ORANGE BCH AL BU 0450   76 75  150/ 16/ 19 1014.4          7/ 7
$$




USA.gov is the U.S. government's official web portal to all federal, state and local government web resources and services.